Time,TemperatureF,DewpointF,PressureIn,WindDirection,WindDirectionDegrees,WindSpeedMPH,WindSpeedGustMPH,Humidity,HourlyPrecipIn,Conditions,Clouds,dailyrainin,SoftwareType,DateUTC
2013-02-12 00:02:00,34.4,27.0,30.76,WSW,253,13.0,20.0,74,0.00,CLR,CLR,0.00,WeatherDisplay:10.37,2013-02-12 05:02:00,
2013-02-12 00:07:00,34.4,27.3,30.76,WSW,246,10.0,16.0,75,0.00,CLR,CLR,0.00,WeatherDisplay:10.37,2013-02-12 05:07:00,
2013-02-12 00:12:00,34.4,27.3,30.77,WSW,246,10.0,15.0,75,0.00,CLR,CLR,0.00,WeatherDisplay:10.37,2013-02-12 05:12:00,
2013-02-12 00:17:00,34.4,27.3,30.77,WSW,248,9.0,17.0,75,0.00,CLR,CLR,0.00,WeatherDisplay:10.37,2013-02-12 05:17:00,
2013-02-12 00:22:00,34.4,27.3,30.77,WSW,252,14.0,24.0,75,0.00,CLR,CLR,0.00,WeatherDisplay:10.37,2013-02-12 05:22:00,
2013-02-12 00:27:00,34.4,26.6,30.77,WSW,247,12.0,23.0,73,0.00,CLR,CLR,0.00,WeatherDisplay:10.37,2013-02-12 05:27:00,
2013-02-12 00:32:00,34.3,26.9,30.77,WSW,244,9.0,16.0,74,0.00,CLR,CLR,0.00,WeatherDisplay:10.37,2013-02-12 05:32:00,
2013-02-12 00:37:00,34.3,26.9,30.78,WSW,249,9.0,18.0,74,0.00,CLR,CLR,0.00,WeatherDisplay:10.37,2013-02-12 05:37:00,
2013-02-12 00:42:00,34.3,26.5,30.78,WSW,248,7.0,14.0,73,0.00,CLR,CLR,0.00,WeatherDisplay:10.37,2013-02-12 05:42:00,
2013-02-12 00:47:00,34.2,26.5,30.78,WSW,249,8.0,20.0,73,0.00,CLR,CLR,0.00,WeatherDisplay:10.37,2013-02-12 05:47:00,
2013-02-12 00:52:00,34.3,26.2,30.78,WSW,246,12.0,16.0,72,0.00,CLR,CLR,0.00,WeatherDisplay:10.37,2013-02-12 05:52:00,
2013-02-12 00:57:00,34.2,26.5,30.78,WSW,242,14.0,20.0,73,0.00,CLR,CLR,0.00,WeatherDisplay:10.37,2013-02-12 05:57:00,
2013-02-12 01:02:00,34.2,26.4,30.78,WSW,243,8.0,15.0,73,0.00,CLR,CLR,0.00,WeatherDisplay:10.37,2013-02-12 06:02:00,
2013-02-12 01:07:00,34.1,26.0,30.78,WSW,240,8.0,16.0,72,0.00,CLR,CLR,0.00,WeatherDisplay:10.37,2013-02-12 06:07:00,
2013-02-12 01:12:00,34.1,26.3,30.78,WSW,237,7.0,16.0,73,0.00,CLR,CLR,0.00,WeatherDisplay:10.37,2013-02-12 06:12:00,
2013-02-12 01:17:00,34.1,26.3,30.78,WSW,240,8.0,17.0,73,0.00,CLR,CLR,0.00,WeatherDisplay:10.37,2013-02-12 06:17:00,
2013-02-12 01:22:00,34.1,26.0,30.78,WSW,250,8.0,15.0,72,0.00,CLR,CLR,0.00,WeatherDisplay:10.37,2013-02-12 06:22:00,
2013-02-12 01:27:00,34.1,26.4,30.79,WSW,247,8.0,17.0,73,0.00,CLR,CLR,0.00,WeatherDisplay:10.37,2013-02-12 06:27:00,
2013-02-12 01:32:00,34.1,26.0,30.78,WSW,238,10.0,18.0,72,0.00,CLR,CLR,0.00,WeatherDisplay:10.37,2013-02-12 06:32:00,
2013-02-12 01:37:00,34.1,26.4,30.79,SW,234,8.0,12.0,73,0.00,CLR,CLR,0.00,WeatherDisplay:10.37,2013-02-12 06:37:00,
2013-02-12 01:42:00,34.1,26.3,30.79,SW,229,8.0,14.0,73,0.00,CLR,CLR,0.00,WeatherDisplay:10.37,2013-02-12 06:42:00,
2013-02-12 01:47:00,34.1,26.7,30.79,SW,233,7.0,13.0,74,0.00,CLR,CLR,0.00,WeatherDisplay:10.37,2013-02-12 06:47:00,
2013-02-12 01:52:00,34.1,26.7,30.79,WSW,238,9.0,15.0,74,0.00,CLR,CLR,0.00,WeatherDisplay:10.37,2013-02-12 06:52:00,
2013-02-12 01:57:00,34.1,26.3,30.79,WSW,238,8.0,20.0,73,0.00,CLR,CLR,0.00,WeatherDisplay:10.37,2013-02-12 06:57:00,
2013-02-12 02:02:00,34.1,26.7,30.79,SW,235,6.0,14.0,74,0.00,CLR,CLR,0.00,WeatherDisplay:10.37,2013-02-12 07:02:00,
2013-02-12 02:07:00,34.1,26.7,30.80,WSW,237,8.0,13.0,74,0.00,CLR,CLR,0.00,WeatherDisplay:10.37,2013-02-12 07:07:00,
2013-02-12 02:12:00,34.1,26.7,30.80,WSW,247,12.0,18.0,74,0.00,CLR,CLR,0.00,WeatherDisplay:10.37,2013-02-12 07:12:00,
2013-02-12 02:17:00,34.1,26.6,30.80,WSW,239,9.0,16.0,74,0.00,CLR,CLR,0.00,WeatherDisplay:10.37,2013-02-12 07:17:00,
2013-02-12 02:22:00,34.0,26.6,30.80,WSW,237,8.0,15.0,74,0.00,CLR,CLR,0.00,WeatherDisplay:10.37,2013-02-12 07:22:00,
2013-02-12 02:27:00,34.0,26.6,30.80,WSW,240,16.0,22.0,74,0.00,CLR,CLR,0.00,WeatherDisplay:10.37,2013-02-12 07:27:00,
2013-02-12 02:32:00,34.0,26.6,30.81,WSW,245,9.0,17.0,74,0.00,CLR,CLR,0.00,WeatherDisplay:10.37,2013-02-12 07:32:00,
2013-02-12 02:37:00,34.0,26.6,30.80,WSW,246,8.0,15.0,74,0.00,CLR,CLR,0.00,WeatherDisplay:10.37,2013-02-12 07:37:00,
2013-02-12 02:42:00,33.9,26.8,30.81,WSW,246,8.0,15.0,75,0.00,CLR,CLR,0.00,WeatherDisplay:10.37,2013-02-12 07:42:00,
2013-02-12 02:47:00,33.9,26.8,30.81,WSW,239,13.0,20.0,75,0.00,CLR,CLR,0.00,WeatherDisplay:10.37,2013-02-12 07:47:00,
2013-02-12 02:52:00,33.9,26.8,30.81,WSW,239,10.0,20.0,75,0.00,CLR,CLR,0.00,WeatherDisplay:10.37,2013-02-12 07:52:00,
2013-02-12 02:57:00,33.8,26.7,30.81,WSW,246,12.0,16.0,75,0.00,CLR,CLR,0.00,WeatherDisplay:10.37,2013-02-12 07:57:00,
2013-02-12 03:02:00,33.7,26.6,30.81,WSW,249,9.0,14.0,75,0.00,CLR,CLR,0.00,WeatherDisplay:10.37,2013-02-12 08:02:00,
2013-02-12 03:07:00,33.7,26.9,30.81,WSW,250,8.0,16.0,76,0.00,CLR,CLR,0.00,WeatherDisplay:10.37,2013-02-12 08:07:00,
2013-02-12 03:12:00,33.7,26.6,30.81,WSW,248,8.0,14.0,75,0.00,CLR,CLR,0.00,WeatherDisplay:10.37,2013-02-12 08:12:00,
2013-02-12 03:17:00,33.6,26.5,30.81,WSW,252,10.0,20.0,75,0.00,CLR,CLR,0.00,WeatherDisplay:10.37,2013-02-12 08:17:00,
2013-02-12 03:22:00,33.6,26.5,30.81,WSW,250,10.0,18.0,75,0.00,CLR,CLR,0.00,WeatherDisplay:10.37,2013-02-12 08:22:00,
2013-02-12 03:27:00,33.5,26.5,30.81,WSW,249,12.0,17.0,75,0.00,CLR,CLR,0.00,WeatherDisplay:10.37,2013-02-12 08:27:00,
2013-02-12 03:32:00,33.5,26.7,30.81,WSW,248,8.0,12.0,76,0.00,CLR,CLR,0.00,WeatherDisplay:10.37,2013-02-12 08:32:00,
2013-02-12 03:37:00,33.4,26.3,30.82,WSW,246,10.0,18.0,75,0.00,CLR,CLR,0.00,WeatherDisplay:10.37,2013-02-12 08:37:00,
2013-02-12 03:42:00,33.4,26.3,30.82,WSW,257,14.0,21.0,75,0.00,CLR,CLR,0.00,WeatherDisplay:10.37,2013-02-12 08:42:00,
2013-02-12 03:47:00,33.4,26.6,30.83,WSW,255,10.0,18.0,76,0.00,CLR,CLR,0.00,WeatherDisplay:10.37,2013-02-12 08:47:00,
2013-02-12 03:52:00,33.3,26.2,30.83,WSW,245,10.0,18.0,75,0.00,CLR,CLR,0.00,WeatherDisplay:10.37,2013-02-12 08:52:00,
2013-02-12 03:57:00,33.3,26.2,30.83,WSW,245,9.0,17.0,75,0.00,CLR,CLR,0.00,WeatherDisplay:10.37,2013-02-12 08:57:00,
2013-02-12 04:02:00,33.2,26.5,30.83,WSW,243,10.0,16.0,76,0.00,CLR,CLR,0.00,WeatherDisplay:10.37,2013-02-12 09:02:00,
2013-02-12 04:07:00,33.2,26.4,30.83,WSW,243,8.0,15.0,76,0.00,CLR,CLR,0.00,WeatherDisplay:10.37,2013-02-12 09:07:00,
2013-02-12 04:12:00,33.1,26.0,30.83,WSW,242,8.0,14.0,75,0.00,CLR,CLR,0.00,WeatherDisplay:10.37,2013-02-12 09:12:00,
2013-02-12 04:17:00,33.2,26.1,30.83,WSW,245,7.0,14.0,75,0.00,CLR,CLR,0.00,WeatherDisplay:10.37,2013-02-12 09:17:00,
2013-02-12 04:22:00,33.2,26.4,30.83,WSW,250,8.0,13.0,76,0.00,CLR,CLR,0.00,WeatherDisplay:10.37,2013-02-12 09:22:00,
2013-02-12 04:27:00,33.2,26.4,30.83,WSW,248,8.0,12.0,76,0.00,CLR,CLR,0.00,WeatherDisplay:10.37,2013-02-12 09:27:00,
2013-02-12 04:32:00,33.1,26.4,30.83,WSW,243,6.0,10.0,76,0.00,CLR,CLR,0.00,WeatherDisplay:10.37,2013-02-12 09:32:00,
2013-02-12 04:37:00,33.1,26.4,30.83,WSW,241,8.0,12.0,76,0.00,CLR,CLR,0.00,WeatherDisplay:10.37,2013-02-12 09:37:00,
2013-02-12 04:42:00,33.1,26.1,30.84,WSW,244,7.0,15.0,75,0.00,CLR,CLR,0.00,WeatherDisplay:10.37,2013-02-12 09:42:00,
2013-02-12 04:47:00,33.1,26.0,30.83,WSW,251,5.0,8.0,75,0.00,CLR,CLR,0.00,WeatherDisplay:10.37,2013-02-12 09:47:00,
2013-02-12 04:52:00,33.1,26.0,30.84,WSW,251,7.0,12.0,75,0.00,CLR,CLR,0.00,WeatherDisplay:10.37,2013-02-12 09:52:00,
2013-02-12 04:57:00,33.1,26.0,30.84,WSW,252,6.0,13.0,75,0.00,CLR,CLR,0.00,WeatherDisplay:10.37,2013-02-12 09:57:00,
2013-02-12 05:02:00,33.1,25.7,30.84,WSW,250,9.0,13.0,74,0.00,CLR,CLR,0.00,WeatherDisplay:10.37,2013-02-12 10:02:00,
2013-02-12 05:07:00,33.1,26.0,30.84,WSW,246,7.0,12.0,75,0.00,CLR,CLR,0.00,WeatherDisplay:10.37,2013-02-12 10:07:00,
2013-02-12 05:12:00,33.1,26.4,30.84,WSW,246,5.0,8.0,76,0.00,CLR,CLR,0.00,WeatherDisplay:10.37,2013-02-12 10:12:00,
2013-02-12 05:17:00,33.0,25.9,30.85,SW,236,8.0,12.0,75,0.00,CLR,CLR,0.00,WeatherDisplay:10.37,2013-02-12 10:17:00,
2013-02-12 05:22:00,33.0,25.9,30.85,WSW,245,8.0,12.0,75,0.00,CLR,CLR,0.00,WeatherDisplay:10.37,2013-02-12 10:22:00,
2013-02-12 05:27:00,33.0,25.3,30.85,WSW,254,7.0,13.0,73,0.00,CLR,CLR,0.00,WeatherDisplay:10.37,2013-02-12 10:27:00,
2013-02-12 05:32:00,32.9,25.5,30.85,WSW,251,8.0,15.0,74,0.00,CLR,CLR,0.00,WeatherDisplay:10.37,2013-02-12 10:32:00,
2013-02-12 05:37:00,32.9,25.5,30.85,WSW,246,8.0,17.0,74,0.00,CLR,CLR,0.00,WeatherDisplay:10.37,2013-02-12 10:37:00,
2013-02-12 05:42:00,32.9,25.2,30.85,WSW,247,9.0,14.0,73,0.00,CLR,CLR,0.00,WeatherDisplay:10.37,2013-02-12 10:42:00,
2013-02-12 05:47:00,32.8,25.5,30.85,WSW,247,6.0,12.0,74,0.00,CLR,CLR,0.00,WeatherDisplay:10.37,2013-02-12 10:47:00,
2013-02-12 05:52:00,32.8,25.4,30.85,WSW,247,8.0,14.0,74,0.00,CLR,CLR,0.00,WeatherDisplay:10.37,2013-02-12 10:52:00,
2013-02-12 05:57:00,32.8,25.1,30.86,WSW,241,9.0,13.0,73,0.00,CLR,CLR,0.00,WeatherDisplay:10.37,2013-02-12 10:57:00,
2013-02-12 06:02:00,32.8,25.4,30.86,WSW,249,7.0,12.0,74,0.00,CLR,CLR,0.00,WeatherDisplay:10.37,2013-02-12 11:02:00,
2013-02-12 06:07:00,32.8,25.4,30.86,WSW,258,9.0,14.0,74,0.00,CLR,CLR,0.00,WeatherDisplay:10.37,2013-02-12 11:07:00,
2013-02-12 06:12:00,32.7,25.3,30.86,West,261,10.0,18.0,74,0.00,CLR,CLR,0.00,WeatherDisplay:10.37,2013-02-12 11:12:00,
2013-02-12 06:17:00,32.7,25.4,30.86,WSW,257,10.0,18.0,74,0.00,CLR,CLR,0.00,WeatherDisplay:10.37,2013-02-12 11:17:00,
2013-02-12 06:22:00,32.7,25.3,30.87,West,259,8.0,18.0,74,0.00,CLR,CLR,0.00,WeatherDisplay:10.37,2013-02-12 11:22:00,
2013-02-12 06:27:00,32.7,25.0,30.87,WSW,253,10.0,16.0,73,0.00,CLR,CLR,0.00,WeatherDisplay:10.37,2013-02-12 11:27:00,
2013-02-12 06:32:00,32.6,25.3,30.87,West,264,9.0,16.0,74,0.00,CLR,CLR,0.00,WeatherDisplay:10.37,2013-02-12 11:32:00,
2013-02-12 06:37:00,32.6,25.2,30.87,West,259,10.0,23.0,74,0.00,CLR,CLR,0.00,WeatherDisplay:10.37,2013-02-12 11:37:00,
2013-02-12 06:42:00,32.6,25.6,30.87,WSW,253,8.0,14.0,75,0.00,CLR,CLR,0.00,WeatherDisplay:10.37,2013-02-12 11:42:00,
2013-02-12 06:47:00,32.6,25.5,30.87,WSW,252,9.0,13.0,75,0.00,CLR,CLR,0.00,WeatherDisplay:10.37,2013-02-12 11:47:00,
2013-02-12 06:52:00,32.5,25.5,30.87,WSW,244,9.0,15.0,75,0.00,CLR,CLR,0.00,WeatherDisplay:10.37,2013-02-12 11:52:00,
2013-02-12 06:57:00,32.5,25.5,30.88,WSW,241,10.0,15.0,75,0.00,CLR,CLR,0.00,WeatherDisplay:10.37,2013-02-12 11:57:00,
2013-02-12 07:02:00,32.5,25.8,30.88,WSW,242,6.0,12.0,76,0.00,CLR,CLR,0.00,WeatherDisplay:10.37,2013-02-12 12:02:00,
2013-02-12 07:07:00,32.5,25.8,30.88,WSW,244,5.0,8.0,76,0.00,CLR,CLR,0.00,WeatherDisplay:10.37,2013-02-12 12:07:00,
2013-02-12 07:12:00,32.4,25.7,30.88,WSW,241,8.0,12.0,76,0.00,CLR,CLR,0.00,WeatherDisplay:10.37,2013-02-12 12:12:00,
2013-02-12 07:17:00,32.4,25.7,30.88,WSW,240,6.0,10.0,76,0.00,CLR,CLR,0.00,WeatherDisplay:10.37,2013-02-12 12:17:00,
2013-02-12 07:22:00,32.5,25.5,30.88,WSW,242,7.0,12.0,75,0.00,CLR,CLR,0.00,WeatherDisplay:10.37,2013-02-12 12:22:00,
2013-02-12 07:27:00,32.5,25.7,30.89,WSW,253,6.0,10.0,76,0.00,CLR,CLR,0.00,WeatherDisplay:10.37,2013-02-12 12:27:00,
2013-02-12 07:32:00,32.4,25.7,30.89,WSW,250,10.0,16.0,76,0.00,CLR,CLR,0.00,WeatherDisplay:10.37,2013-02-12 12:32:00,
2013-02-12 07:37:00,32.4,25.7,30.89,WSW,253,10.0,14.0,76,0.00,CLR,CLR,0.00,WeatherDisplay:10.37,2013-02-12 12:37:00,
2013-02-12 07:42:00,32.4,25.7,30.89,WSW,257,5.0,10.0,76,0.00,CLR,CLR,0.00,WeatherDisplay:10.37,2013-02-12 12:42:00,
2013-02-12 07:47:00,32.4,26.0,30.90,WSW,252,6.0,10.0,77,0.00,CLR,CLR,0.00,WeatherDisplay:10.37,2013-02-12 12:47:00,
2013-02-12 07:52:00,32.3,25.9,30.90,WSW,244,5.0,9.0,77,0.00,CLR,CLR,0.00,WeatherDisplay:10.37,2013-02-12 12:52:00,
2013-02-12 07:57:00,32.3,25.9,30.90,WSW,250,12.0,16.0,77,0.00,CLR,CLR,0.00,WeatherDisplay:10.37,2013-02-12 12:57:00,
2013-02-12 08:02:00,32.3,25.9,30.90,WSW,253,7.0,10.0,77,0.00,CLR,CLR,0.00,WeatherDisplay:10.37,2013-02-12 13:02:00,
2013-02-12 08:07:00,32.3,25.9,30.90,WSW,249,9.0,13.0,77,0.00,CLR,CLR,0.00,WeatherDisplay:10.37,2013-02-12 13:07:00,
2013-02-12 08:12:00,32.3,25.9,30.90,WSW,246,5.0,12.0,77,0.00,CLR,CLR,0.00,WeatherDisplay:10.37,2013-02-12 13:12:00,
2013-02-12 08:17:00,32.2,25.8,30.91,WSW,246,6.0,14.0,77,0.00,CLR,CLR,0.00,WeatherDisplay:10.37,2013-02-12 13:17:00,
2013-02-12 08:22:00,32.2,25.8,30.91,WSW,247,8.0,12.0,77,0.00,CLR,CLR,0.00,WeatherDisplay:10.37,2013-02-12 13:22:00,
2013-02-12 08:27:00,32.2,25.8,30.91,WSW,251,7.0,12.0,77,0.00,CLR,CLR,0.00,WeatherDisplay:10.37,2013-02-12 13:27:00,
2013-02-12 08:32:00,32.2,26.1,30.92,WSW,254,7.0,12.0,78,0.00,CLR,CLR,0.00,WeatherDisplay:10.37,2013-02-12 13:32:00,
2013-02-12 08:37:00,32.1,26.0,30.92,WSW,251,8.0,12.0,78,0.00,CLR,CLR,0.00,WeatherDisplay:10.37,2013-02-12 13:37:00,
2013-02-12 08:42:00,32.0,26.2,30.92,WSW,248,5.0,14.0,79,0.00,CLR,CLR,0.00,WeatherDisplay:10.37,2013-02-12 13:42:00,
2013-02-12 08:47:00,31.9,26.1,30.92,WSW,244,7.0,12.0,79,0.00,CLR,CLR,0.00,WeatherDisplay:10.37,2013-02-12 13:47:00,
2013-02-12 08:52:00,31.9,26.1,30.92,WSW,250,8.0,13.0,79,0.00,CLR,CLR,0.00,WeatherDisplay:10.37,2013-02-12 13:52:00,
2013-02-12 08:57:00,31.8,26.6,30.92,WSW,248,8.0,13.0,81,0.00,CLR,CLR,0.00,WeatherDisplay:10.37,2013-02-12 13:57:00,
2013-02-12 09:02:00,31.6,26.7,30.92,WSW,251,7.0,13.0,82,0.00,CLR,CLR,0.00,WeatherDisplay:10.37,2013-02-12 14:02:00,
2013-02-12 09:07:00,31.5,26.9,30.92,WSW,249,6.0,12.0,83,0.00,CLR,CLR,0.00,WeatherDisplay:10.37,2013-02-12 14:07:00,
2013-02-12 09:17:00,31.4,27.1,30.92,WSW,242,5.0,9.0,84,0.00,CLR,CLR,0.00,WeatherDisplay:10.37,2013-02-12 14:17:00,
2013-02-12 09:22:00,31.4,26.8,30.92,WSW,244,6.0,9.0,83,0.00,CLR,CLR,0.00,WeatherDisplay:10.37,2013-02-12 14:22:00,
2013-02-12 09:27:00,31.4,27.1,30.92,WSW,244,6.0,7.0,84,0.00,CLR,CLR,0.00,WeatherDisplay:10.37,2013-02-12 14:27:00,
2013-02-12 09:32:00,31.5,26.9,30.92,WSW,244,8.0,12.0,83,0.00,CLR,CLR,0.00,WeatherDisplay:10.37,2013-02-12 14:32:00,
2013-02-12 09:37:00,31.6,27.0,30.92,WSW,241,6.0,8.0,83,0.00,CLR,CLR,0.00,WeatherDisplay:10.37,2013-02-12 14:37:00,
2013-02-12 09:42:00,31.7,26.8,30.92,WSW,241,5.0,8.0,82,0.00,CLR,CLR,0.00,WeatherDisplay:10.37,2013-02-12 14:42:00,
2013-02-12 09:47:00,31.8,26.6,30.92,WSW,242,8.0,12.0,81,0.00,CLR,CLR,0.00,WeatherDisplay:10.37,2013-02-12 14:47:00,
2013-02-12 09:52:00,31.9,26.7,30.92,WSW,247,6.0,9.0,81,0.00,CLR,CLR,0.00,WeatherDisplay:10.37,2013-02-12 14:52:00,
2013-02-12 09:57:00,32.1,26.6,30.92,WSW,252,6.0,9.0,80,0.00,CLR,CLR,0.00,WeatherDisplay:10.37,2013-02-12 14:57:00,
2013-02-12 10:02:00,32.2,26.4,30.92,WSW,242,9.0,14.0,79,0.00,CLR,CLR,0.00,WeatherDisplay:10.37,2013-02-12 15:02:00,
2013-02-12 10:12:00,32.3,26.2,30.92,WSW,253,6.0,12.0,78,0.00,CLR,CLR,0.00,WeatherDisplay:10.37,2013-02-12 15:12:00,
2013-02-12 10:17:00,32.4,26.3,30.92,WSW,258,8.0,13.0,78,0.00,CLR,CLR,0.00,WeatherDisplay:10.37,2013-02-12 15:17:00,
2013-02-12 10:22:00,32.4,26.0,30.93,West,263,7.0,13.0,77,0.00,CLR,CLR,0.00,WeatherDisplay:10.37,2013-02-12 15:22:00,
2013-02-12 10:27:00,32.4,26.0,30.93,WSW,257,9.0,14.0,77,0.00,CLR,CLR,0.00,WeatherDisplay:10.37,2013-02-12 15:27:00,
2013-02-12 10:32:00,32.3,26.2,30.93,WSW,255,5.0,12.0,78,0.00,CLR,CLR,0.00,WeatherDisplay:10.37,2013-02-12 15:32:00,
2013-02-12 10:37:00,32.3,26.2,30.93,West,260,9.0,13.0,78,0.00,CLR,CLR,0.00,WeatherDisplay:10.37,2013-02-12 15:37:00,
2013-02-12 10:42:00,32.2,26.1,30.93,West,271,6.0,14.0,78,0.00,CLR,CLR,0.00,WeatherDisplay:10.37,2013-02-12 15:42:00,
2013-02-12 10:47:00,32.2,26.1,30.93,West,262,7.0,13.0,78,0.00,CLR,CLR,0.00,WeatherDisplay:10.37,2013-02-12 15:47:00,
2013-02-12 10:52:00,32.3,26.2,30.93,WSW,251,7.0,10.0,78,0.00,CLR,CLR,0.00,WeatherDisplay:10.37,2013-02-12 15:52:00,
2013-02-12 10:57:00,32.3,26.2,30.93,WSW,242,8.0,12.0,78,0.00,CLR,CLR,0.00,WeatherDisplay:10.37,2013-02-12 15:57:00,
2013-02-12 11:02:00,32.4,26.3,30.93,SW,236,8.0,15.0,78,0.00,CLR,CLR,0.00,WeatherDisplay:10.37,2013-02-12 16:02:00,
2013-02-12 11:07:00,32.4,26.3,30.93,WSW,243,7.0,15.0,78,0.00,CLR,CLR,0.00,WeatherDisplay:10.37,2013-02-12 16:07:00,
2013-02-12 11:12:00,32.5,26.4,30.93,WSW,254,6.0,10.0,78,0.00,CLR,CLR,0.00,WeatherDisplay:10.37,2013-02-12 16:12:00,
2013-02-12 11:17:00,32.6,26.2,30.93,WSW,249,6.0,9.0,77,0.00,CLR,CLR,0.00,WeatherDisplay:10.37,2013-02-12 16:17:00,
2013-02-12 11:22:00,32.6,26.2,30.93,WSW,253,8.0,12.0,77,0.00,CLR,CLR,0.00,WeatherDisplay:10.37,2013-02-12 16:22:00,
2013-02-12 11:27:00,32.6,26.2,30.94,WSW,253,6.0,12.0,77,0.00,CLR,CLR,0.00,WeatherDisplay:10.37,2013-02-12 16:27:00,
2013-02-12 11:32:00,32.6,25.9,30.94,WSW,251,9.0,14.0,76,0.00,CLR,CLR,0.00,WeatherDisplay:10.37,2013-02-12 16:32:00,
2013-02-12 11:37:00,32.5,25.8,30.93,WSW,252,8.0,14.0,76,0.00,CLR,CLR,0.00,WeatherDisplay:10.37,2013-02-12 16:37:00,
2013-02-12 11:42:00,32.5,25.8,30.93,WSW,251,8.0,13.0,76,0.00,CLR,CLR,0.00,WeatherDisplay:10.37,2013-02-12 16:42:00,
2013-02-12 11:47:00,32.5,26.1,30.93,WSW,244,8.0,13.0,77,0.00,CLR,CLR,0.00,WeatherDisplay:10.37,2013-02-12 16:47:00,
2013-02-12 11:52:00,32.5,26.1,30.93,WSW,249,7.0,10.0,77,0.00,CLR,CLR,0.00,WeatherDisplay:10.37,2013-02-12 16:52:00,
2013-02-12 11:57:00,32.5,26.1,30.92,WSW,253,6.0,10.0,77,0.00,CLR,CLR,0.00,WeatherDisplay:10.37,2013-02-12 16:57:00,
2013-02-12 12:02:00,32.6,26.2,30.92,WSW,257,2.0,6.0,77,0.00,CLR,CLR,0.00,WeatherDisplay:10.37,2013-02-12 17:02:00,
2013-02-12 12:07:00,32.7,26.3,30.92,WSW,258,3.0,9.0,77,0.00,CLR,CLR,0.00,WeatherDisplay:10.37,2013-02-12 17:07:00,
2013-02-12 12:12:00,32.8,26.4,30.92,WSW,243,5.0,9.0,77,0.00,CLR,CLR,0.00,WeatherDisplay:10.37,2013-02-12 17:12:00,
2013-02-12 12:17:00,32.8,26.4,30.92,WSW,247,7.0,10.0,77,0.00,CLR,CLR,0.00,WeatherDisplay:10.37,2013-02-12 17:17:00,
2013-02-12 12:22:00,32.8,26.4,30.90,WSW,248,5.0,8.0,77,0.00,CLR,CLR,0.00,WeatherDisplay:10.37,2013-02-12 17:22:00,
2013-02-12 12:27:00,32.9,26.5,30.90,WSW,243,3.0,6.0,77,0.00,CLR,CLR,0.00,WeatherDisplay:10.37,2013-02-12 17:27:00,
2013-02-12 12:32:00,32.9,26.2,30.90,WSW,252,6.0,9.0,76,0.00,CLR,CLR,0.00,WeatherDisplay:10.37,2013-02-12 17:32:00,
2013-02-12 12:37:00,32.9,26.5,30.90,WSW,254,3.0,8.0,77,0.00,CLR,CLR,0.00,WeatherDisplay:10.37,2013-02-12 17:37:00,
2013-02-12 12:42:00,33.0,26.6,30.89,WSW,246,5.0,7.0,77,0.00,CLR,CLR,0.00,WeatherDisplay:10.37,2013-02-12 17:42:00,
2013-02-12 12:47:00,33.1,26.6,30.89,SW,233,5.0,6.0,77,0.00,CLR,CLR,0.00,WeatherDisplay:10.37,2013-02-12 17:47:00,
2013-02-12 12:52:00,33.1,26.7,30.90,WSW,242,5.0,8.0,77,0.00,CLR,CLR,0.00,WeatherDisplay:10.37,2013-02-12 17:52:00,
2013-02-12 12:57:00,33.1,26.3,30.90,WSW,250,5.0,10.0,76,0.00,CLR,CLR,0.00,WeatherDisplay:10.37,2013-02-12 17:57:00,
2013-02-12 13:02:00,33.0,26.6,30.91,SW,232,7.0,12.0,77,0.00,CLR,CLR,0.00,WeatherDisplay:10.37,2013-02-12 18:02:00,
2013-02-12 13:07:00,33.1,26.7,30.91,SW,224,7.0,12.0,77,0.00,CLR,CLR,0.00,WeatherDisplay:10.37,2013-02-12 18:07:00,
2013-02-12 13:12:00,33.0,26.6,30.91,SW,225,7.0,12.0,77,0.00,CLR,CLR,0.00,WeatherDisplay:10.37,2013-02-12 18:12:00,
2013-02-12 13:17:00,33.1,27.0,30.91,SW,228,8.0,12.0,78,0.00,CLR,CLR,0.00,WeatherDisplay:10.37,2013-02-12 18:17:00,
2013-02-12 13:22:00,33.0,26.6,30.91,SW,230,9.0,13.0,77,0.00,CLR,CLR,0.00,WeatherDisplay:10.37,2013-02-12 18:22:00,
2013-02-12 13:27:00,33.0,26.6,30.91,SW,228,9.0,13.0,77,0.00,CLR,CLR,0.00,WeatherDisplay:10.37,2013-02-12 18:27:00,
2013-02-12 13:32:00,33.0,26.3,30.90,SW,232,9.0,13.0,76,0.00,CLR,CLR,0.00,WeatherDisplay:10.37,2013-02-12 18:32:00,
2013-02-12 13:37:00,33.2,26.5,30.90,WSW,246,8.0,12.0,76,0.00,CLR,CLR,0.00,WeatherDisplay:10.37,2013-02-12 18:37:00,
2013-02-12 13:42:00,33.3,26.5,30.90,WSW,248,6.0,12.0,76,0.00,CLR,CLR,0.00,WeatherDisplay:10.37,2013-02-12 18:42:00,
2013-02-12 13:47:00,33.3,26.2,30.89,WSW,244,7.0,12.0,75,0.00,CLR,CLR,0.00,WeatherDisplay:10.37,2013-02-12 18:47:00,
2013-02-12 13:52:00,33.3,26.2,30.88,WSW,248,7.0,10.0,75,0.00,CLR,CLR,0.00,WeatherDisplay:10.37,2013-02-12 18:52:00,
2013-02-12 13:57:00,33.3,26.2,30.87,WSW,247,6.0,10.0,75,0.00,CLR,CLR,0.00,WeatherDisplay:10.37,2013-02-12 18:57:00,
2013-02-12 14:02:00,33.3,26.6,30.86,WSW,243,3.0,9.0,76,0.00,CLR,CLR,0.00,WeatherDisplay:10.37,2013-02-12 19:02:00,
2013-02-12 14:07:00,33.3,26.6,30.85,WSW,246,5.0,9.0,76,0.00,CLR,CLR,0.00,WeatherDisplay:10.37,2013-02-12 19:07:00,
2013-02-12 14:17:00,33.3,26.2,30.84,SW,232,5.0,8.0,75,0.00,CLR,CLR,0.00,WeatherDisplay:10.37,2013-02-12 19:17:00,
2013-02-12 14:22:00,33.2,26.8,30.85,SW,226,5.0,10.0,77,0.00,CLR,CLR,0.00,WeatherDisplay:10.37,2013-02-12 19:22:00,
2013-02-12 14:27:00,33.1,26.7,30.84,SW,220,7.0,10.0,77,0.00,CLR,CLR,0.00,WeatherDisplay:10.37,2013-02-12 19:27:00,
2013-02-12 14:32:00,33.1,26.7,30.84,SW,223,6.0,8.0,77,0.00,CLR,CLR,0.00,WeatherDisplay:10.37,2013-02-12 19:32:00,
2013-02-12 14:37:00,33.0,26.3,30.84,SW,230,7.0,12.0,76,0.00,CLR,CLR,0.00,WeatherDisplay:10.37,2013-02-12 19:37:00,
2013-02-12 14:42:00,33.0,26.3,30.83,WSW,240,5.0,8.0,76,0.00,CLR,CLR,0.00,WeatherDisplay:10.37,2013-02-12 19:42:00,
2013-02-12 14:47:00,33.0,26.3,30.83,WSW,251,6.0,7.0,76,0.00,CLR,CLR,0.00,WeatherDisplay:10.37,2013-02-12 19:47:00,
2013-02-12 14:52:00,33.1,26.7,30.83,WSW,243,3.0,8.0,77,0.00,CLR,CLR,0.00,WeatherDisplay:10.37,2013-02-12 19:52:00,
2013-02-12 14:57:00,33.1,26.7,30.83,WSW,244,1.0,8.0,77,0.00,CLR,CLR,0.00,WeatherDisplay:10.37,2013-02-12 19:57:00,
2013-02-12 15:07:00,33.2,26.7,30.84,WSW,248,3.0,8.0,77,0.00,CLR,CLR,0.00,WeatherDisplay:10.37,2013-02-12 20:07:00,
2013-02-12 15:12:00,33.2,26.5,30.84,WSW,257,3.0,7.0,76,0.00,CLR,CLR,0.00,WeatherDisplay:10.37,2013-02-12 20:12:00,
2013-02-12 15:22:00,33.2,26.5,30.85,West,260,3.0,7.0,76,0.00,CLR,CLR,0.00,WeatherDisplay:10.37,2013-02-12 20:22:00,
2013-02-12 15:27:00,33.3,26.5,30.85,West,261,3.0,5.0,76,0.00,CLR,CLR,0.00,WeatherDisplay:10.37,2013-02-12 20:27:00,
2013-02-12 15:32:00,33.3,26.5,30.85,West,281,1.0,6.0,76,0.00,CLR,CLR,0.00,WeatherDisplay:10.37,2013-02-12 20:32:00,
2013-02-12 15:37:00,33.2,26.5,30.86,West,264,2.0,6.0,76,0.00,CLR,CLR,0.00,WeatherDisplay:10.37,2013-02-12 20:37:00,
2013-02-12 15:42:00,33.2,26.8,30.86,West,266,3.0,7.0,77,0.00,CLR,CLR,0.00,WeatherDisplay:10.37,2013-02-12 20:42:00,
2013-02-12 15:47:00,33.1,26.7,30.87,West,270,2.0,9.0,77,0.00,CLR,CLR,0.00,WeatherDisplay:10.37,2013-02-12 20:47:00,
2013-02-12 15:57:00,33.2,26.8,30.87,West,261,3.0,5.0,77,0.00,CLR,CLR,0.00,WeatherDisplay:10.37,2013-02-12 20:57:00,
2013-02-12 16:02:00,33.2,26.8,30.87,WSW,243,3.0,5.0,77,0.00,CLR,CLR,0.00,WeatherDisplay:10.37,2013-02-12 21:02:00,
2013-02-12 16:07:00,33.2,26.8,30.88,WSW,240,2.0,6.0,77,0.00,CLR,CLR,0.00,WeatherDisplay:10.37,2013-02-12 21:07:00,
2013-02-12 16:12:00,33.3,26.9,30.88,WSW,247,3.0,5.0,77,0.00,CLR,CLR,0.00,WeatherDisplay:10.37,2013-02-12 21:12:00,
2013-02-12 16:17:00,33.4,26.9,30.88,SW,236,5.0,7.0,77,0.00,CLR,CLR,0.00,WeatherDisplay:10.37,2013-02-12 21:17:00,
2013-02-12 16:27:00,33.4,27.0,30.88,SW,223,3.0,6.0,77,0.00,CLR,CLR,0.00,WeatherDisplay:10.37,2013-02-12 21:27:00,
2013-02-12 16:32:00,33.4,27.0,30.88,SW,227,5.0,7.0,77,0.00,CLR,CLR,0.00,WeatherDisplay:10.37,2013-02-12 21:32:00,
2013-02-12 16:37:00,33.4,27.0,30.87,SW,218,2.0,5.0,77,0.00,CLR,CLR,0.00,WeatherDisplay:10.37,2013-02-12 21:37:00,
2013-02-12 16:42:00,33.4,27.0,30.87,SW,222,3.0,6.0,77,0.00,CLR,CLR,0.00,WeatherDisplay:10.37,2013-02-12 21:42:00,
2013-02-12 16:47:00,33.4,27.0,30.87,SW,224,2.0,7.0,77,0.00,CLR,CLR,0.00,WeatherDisplay:10.37,2013-02-12 21:47:00,
2013-02-12 16:52:00,33.4,27.3,30.87,SW,219,1.0,4.0,78,0.00,CLR,CLR,0.00,WeatherDisplay:10.37,2013-02-12 21:52:00,
2013-02-12 16:57:00,33.5,27.0,30.87,SW,225,2.0,5.0,77,0.00,CLR,CLR,0.00,WeatherDisplay:10.37,2013-02-12 21:57:00,
2013-02-12 17:02:00,33.4,27.0,30.87,SW,232,3.0,5.0,77,0.00,CLR,CLR,0.00,WeatherDisplay:10.37,2013-02-12 22:02:00,
2013-02-12 17:07:00,33.4,27.0,30.87,SW,231,0.0,4.0,77,0.00,CLR,CLR,0.00,WeatherDisplay:10.37,2013-02-12 22:07:00,
2013-02-12 17:12:00,33.4,27.0,30.87,SW,226,0.0,0.0,77,0.00,CLR,CLR,0.00,WeatherDisplay:10.37,2013-02-12 22:12:00,
2013-02-12 17:17:00,33.4,27.3,30.87,SW,226,1.0,3.0,78,0.00,CLR,CLR,0.00,WeatherDisplay:10.37,2013-02-12 22:17:00,
2013-02-12 17:22:00,33.4,27.3,30.87,SW,226,2.0,3.0,78,0.00,CLR,CLR,0.00,WeatherDisplay:10.37,2013-02-12 22:22:00,
2013-02-12 17:32:00,33.4,27.6,30.88,SW,226,0.0,1.0,79,0.00,CLR,CLR,0.00,WeatherDisplay:10.37,2013-02-12 22:32:00,
2013-02-12 17:37:00,33.4,27.6,30.87,SW,226,0.0,0.0,79,0.00,CLR,CLR,0.00,WeatherDisplay:10.37,2013-02-12 22:37:00,
2013-02-12 17:42:00,33.4,27.0,30.87,SW,226,0.0,0.0,77,0.00,CLR,CLR,0.00,WeatherDisplay:10.37,2013-02-12 22:42:00,
2013-02-12 17:47:00,33.4,27.0,30.88,SW,226,0.0,0.0,77,0.00,CLR,CLR,0.00,WeatherDisplay:10.37,2013-02-12 22:47:00,
2013-02-12 17:52:00,33.4,27.3,30.88,SW,226,0.0,0.0,78,0.00,CLR,CLR,0.00,WeatherDisplay:10.37,2013-02-12 22:52:00,
2013-02-12 18:02:00,33.3,26.9,30.88,SW,226,0.0,0.0,77,0.00,CLR,CLR,0.00,WeatherDisplay:10.37,2013-02-12 23:02:00,
2013-02-12 18:07:00,33.2,27.1,30.88,SW,226,0.0,0.0,78,0.00,CLR,CLR,0.00,WeatherDisplay:10.37,2013-02-12 23:07:00,
2013-02-12 18:17:00,32.6,26.5,30.88,SW,226,0.0,0.0,78,0.00,CLR,CLR,0.00,WeatherDisplay:10.37,2013-02-12 23:17:00,
2013-02-12 18:22:00,32.3,26.5,30.88,SW,226,0.0,0.0,79,0.00,CLR,CLR,0.00,WeatherDisplay:10.37,2013-02-12 23:22:00,
2013-02-12 18:32:00,31.5,26.0,30.88,SW,226,0.0,1.0,80,0.00,CLR,CLR,0.00,WeatherDisplay:10.37,2013-02-12 23:32:00,
2013-02-12 18:37:00,31.3,26.1,30.88,SW,226,0.0,1.0,81,0.00,CLR,CLR,0.00,WeatherDisplay:10.37,2013-02-12 23:37:00,
2013-02-12 18:42:00,31.1,26.0,30.88,SW,226,0.0,2.0,81,0.00,CLR,CLR,0.00,WeatherDisplay:10.37,2013-02-12 23:42:00,
2013-02-12 18:47:00,30.9,25.8,30.88,SW,226,0.0,1.0,81,0.00,CLR,CLR,0.00,WeatherDisplay:10.37,2013-02-12 23:47:00,
2013-02-12 18:52:00,30.8,25.6,30.88,SW,226,0.0,0.0,81,0.00,CLR,CLR,0.00,WeatherDisplay:10.37,2013-02-12 23:52:00,
2013-02-12 18:57:00,30.7,25.9,30.88,SW,226,0.0,0.0,82,0.00,CLR,CLR,0.00,WeatherDisplay:10.37,2013-02-12 23:57:00,
2013-02-12 19:02:00,30.6,25.7,30.88,SW,226,0.0,0.0,82,0.00,CLR,CLR,0.00,WeatherDisplay:10.37,2013-02-13 00:02:00,
2013-02-12 19:07:00,30.3,25.8,30.88,SW,226,0.0,0.0,83,0.00,CLR,CLR,0.00,WeatherDisplay:10.37,2013-02-13 00:07:00,
2013-02-12 19:12:00,30.0,25.8,30.88,SW,226,0.0,1.0,84,0.00,CLR,CLR,0.00,WeatherDisplay:10.37,2013-02-13 00:12:00,
2013-02-12 19:17:00,29.8,25.6,30.87,SW,226,0.0,1.0,84,0.00,CLR,CLR,0.00,WeatherDisplay:10.37,2013-02-13 00:17:00,
2013-02-12 19:22:00,29.7,25.7,30.87,SW,226,0.0,1.0,85,0.00,CLR,CLR,0.00,WeatherDisplay:10.37,2013-02-13 00:22:00,
2013-02-12 19:27:00,29.6,25.4,30.86,SW,226,0.0,0.0,84,0.00,CLR,CLR,0.00,WeatherDisplay:10.37,2013-02-13 00:27:00,
2013-02-12 19:32:00,29.5,25.5,30.86,SW,226,0.0,0.0,85,0.00,CLR,CLR,0.00,WeatherDisplay:10.37,2013-02-13 00:32:00,
2013-02-12 19:37:00,29.3,25.4,30.86,SW,226,0.0,1.0,85,0.00,CLR,CLR,0.00,WeatherDisplay:10.37,2013-02-13 00:37:00,
2013-02-12 19:42:00,29.2,25.5,30.86,SW,226,0.0,0.0,86,0.00,CLR,CLR,0.00,WeatherDisplay:10.37,2013-02-13 00:42:00,
2013-02-12 19:47:00,29.1,25.4,30.86,SW,226,0.0,0.0,86,0.00,CLR,CLR,0.00,WeatherDisplay:10.37,2013-02-13 00:47:00,
2013-02-12 19:52:00,29.0,25.3,30.85,SW,226,0.0,0.0,86,0.00,CLR,CLR,0.00,WeatherDisplay:10.37,2013-02-13 00:52:00,
2013-02-12 19:57:00,28.9,25.2,30.85,SW,226,0.0,0.0,86,0.00,CLR,CLR,0.00,WeatherDisplay:10.37,2013-02-13 00:57:00,
2013-02-12 20:02:00,28.7,25.0,30.85,SW,226,0.0,0.0,86,0.00,CLR,CLR,0.00,WeatherDisplay:10.37,2013-02-13 01:02:00,
2013-02-12 20:12:00,28.2,24.8,30.85,SW,226,0.0,0.0,87,0.00,CLR,CLR,0.00,WeatherDisplay:10.37,2013-02-13 01:12:00,
2013-02-12 20:17:00,28.1,25.0,30.85,SW,226,0.0,0.0,88,0.00,CLR,CLR,0.00,WeatherDisplay:10.37,2013-02-13 01:17:00,
2013-02-12 20:22:00,27.9,24.8,30.85,SW,226,0.0,0.0,88,0.00,CLR,CLR,0.00,WeatherDisplay:10.37,2013-02-13 01:22:00,
2013-02-12 20:32:00,27.5,24.5,30.85,SW,226,0.0,0.0,88,0.00,CLR,CLR,0.00,WeatherDisplay:10.37,2013-02-13 01:32:00,
2013-02-12 20:37:00,27.3,24.2,30.85,SW,226,0.0,0.0,88,0.00,CLR,CLR,0.00,WeatherDisplay:10.37,2013-02-13 01:37:00,
2013-02-12 20:42:00,27.0,24.2,30.85,SW,226,0.0,0.0,89,0.00,CLR,CLR,0.00,WeatherDisplay:10.37,2013-02-13 01:42:00,
2013-02-12 20:47:00,26.8,24.0,30.85,SW,226,0.0,0.0,89,0.00,CLR,CLR,0.00,WeatherDisplay:10.37,2013-02-13 01:47:00,
2013-02-12 20:52:00,26.6,23.8,30.85,SW,226,0.0,0.0,89,0.00,CLR,CLR,0.00,WeatherDisplay:10.37,2013-02-13 01:52:00,
2013-02-12 20:57:00,26.4,23.8,30.85,SW,226,0.0,0.0,90,0.00,CLR,CLR,0.00,WeatherDisplay:10.37,2013-02-13 01:57:00,
2013-02-12 21:02:00,26.3,23.8,30.84,SW,226,0.0,0.0,90,0.00,CLR,CLR,0.00,WeatherDisplay:10.37,2013-02-13 02:02:00,
2013-02-12 21:12:00,26.0,23.5,30.84,SW,226,0.0,0.0,90,0.00,CLR,CLR,0.00,WeatherDisplay:10.37,2013-02-13 02:12:00,
2013-02-12 21:17:00,25.8,23.6,30.83,SW,226,0.0,0.0,91,0.00,CLR,CLR,0.00,WeatherDisplay:10.37,2013-02-13 02:17:00,
2013-02-12 21:22:00,25.7,23.4,30.83,SW,226,0.0,0.0,91,0.00,CLR,CLR,0.00,WeatherDisplay:10.37,2013-02-13 02:22:00,
2013-02-12 21:27:00,25.5,23.3,30.83,SW,226,0.0,0.0,91,0.00,CLR,CLR,0.00,WeatherDisplay:10.37,2013-02-13 02:27:00,
2013-02-12 21:32:00,25.3,23.0,30.83,SW,226,0.0,0.0,91,0.00,CLR,CLR,0.00,WeatherDisplay:10.37,2013-02-13 02:32:00,
2013-02-12 21:37:00,25.3,23.0,30.83,SW,226,0.0,0.0,91,0.00,CLR,CLR,0.00,WeatherDisplay:10.37,2013-02-13 02:37:00,
2013-02-12 21:42:00,25.1,23.1,30.83,SW,226,0.0,0.0,92,0.00,CLR,CLR,0.00,WeatherDisplay:10.37,2013-02-13 02:42:00,
2013-02-12 21:47:00,25.0,23.0,30.83,SW,226,0.0,0.0,92,0.00,CLR,CLR,0.00,WeatherDisplay:10.37,2013-02-13 02:47:00,
2013-02-12 21:52:00,24.9,22.9,30.83,SW,226,0.0,0.0,92,0.00,CLR,CLR,0.00,WeatherDisplay:10.37,2013-02-13 02:52:00,
2013-02-12 21:57:00,24.8,22.8,30.82,SW,226,0.0,0.0,92,0.00,CLR,CLR,0.00,WeatherDisplay:10.37,2013-02-13 02:57:00,
2013-02-12 22:02:00,25.0,23.3,30.83,SW,226,0.0,0.0,93,0.00,CLR,CLR,0.00,WeatherDisplay:10.37,2013-02-13 03:02:00,
2013-02-12 22:07:00,25.1,23.4,30.83,SW,226,0.0,0.0,93,0.00,CLR,CLR,0.00,WeatherDisplay:10.37,2013-02-13 03:07:00,
2013-02-12 22:12:00,25.0,23.3,30.83,SW,226,0.0,0.0,93,0.00,CLR,CLR,0.00,WeatherDisplay:10.37,2013-02-13 03:12:00,
2013-02-12 22:22:00,24.7,23.0,30.83,SW,226,0.0,0.0,93,0.00,CLR,CLR,0.00,WeatherDisplay:10.37,2013-02-13 03:22:00,
2013-02-12 22:27:00,24.5,22.5,30.83,SW,226,0.0,0.0,92,0.00,CLR,CLR,0.00,WeatherDisplay:10.37,2013-02-13 03:27:00,
2013-02-12 22:32:00,24.3,22.3,30.83,SW,226,0.0,0.0,92,0.00,CLR,CLR,0.00,WeatherDisplay:10.37,2013-02-13 03:32:00,
2013-02-12 22:37:00,24.0,22.0,30.83,SW,226,0.0,0.0,92,0.00,CLR,CLR,0.00,WeatherDisplay:10.37,2013-02-13 03:37:00,
2013-02-12 22:42:00,23.8,22.1,30.82,SW,226,0.0,0.0,93,0.00,CLR,CLR,0.00,WeatherDisplay:10.37,2013-02-13 03:42:00,
2013-02-12 22:47:00,23.7,22.0,30.82,SW,226,0.0,0.0,93,0.00,CLR,CLR,0.00,WeatherDisplay:10.37,2013-02-13 03:47:00,
2013-02-12 22:52:00,23.7,22.0,30.82,SW,226,0.0,0.0,93,0.00,CLR,CLR,0.00,WeatherDisplay:10.37,2013-02-13 03:52:00,
2013-02-12 22:57:00,23.7,21.9,30.82,SW,226,0.0,0.0,93,0.00,CLR,CLR,0.00,WeatherDisplay:10.37,2013-02-13 03:57:00,
2013-02-12 23:02:00,23.9,22.4,30.81,SW,226,0.0,0.0,94,0.00,CLR,CLR,0.00,WeatherDisplay:10.37,2013-02-13 04:02:00,
2013-02-12 23:07:00,24.0,22.5,30.81,SW,226,0.0,0.0,94,0.00,CLR,CLR,0.00,WeatherDisplay:10.37,2013-02-13 04:07:00,
2013-02-12 23:12:00,24.0,22.5,30.81,SW,226,0.0,0.0,94,0.00,CLR,CLR,0.00,WeatherDisplay:10.37,2013-02-13 04:12:00,
2013-02-12 23:17:00,23.8,22.3,30.81,SW,226,0.0,0.0,94,0.00,CLR,CLR,0.00,WeatherDisplay:10.37,2013-02-13 04:17:00,
2013-02-12 23:22:00,23.7,21.9,30.82,SW,226,0.0,0.0,93,0.00,CLR,CLR,0.00,WeatherDisplay:10.37,2013-02-13 04:22:00,
2013-02-12 23:27:00,23.5,21.8,30.82,SW,226,0.0,0.0,93,0.00,CLR,CLR,0.00,WeatherDisplay:10.37,2013-02-13 04:27:00,
2013-02-12 23:32:00,23.3,21.6,30.82,SW,226,0.0,0.0,93,0.00,CLR,CLR,0.00,WeatherDisplay:10.37,2013-02-13 04:32:00,
2013-02-12 23:37:00,23.4,21.9,30.82,SW,226,0.0,0.0,94,0.00,CLR,CLR,0.00,WeatherDisplay:10.37,2013-02-13 04:37:00,
2013-02-12 23:42:00,23.8,22.3,30.82,SW,226,0.0,0.0,94,0.00,CLR,CLR,0.00,WeatherDisplay:10.37,2013-02-13 04:42:00,
2013-02-12 23:47:00,24.1,22.9,30.82,SW,226,0.0,0.0,95,0.00,CLR,CLR,0.00,WeatherDisplay:10.37,2013-02-13 04:47:00,
2013-02-12 23:52:00,24.4,23.2,30.82,SW,226,0.0,0.0,95,0.00,CLR,CLR,0.00,WeatherDisplay:10.37,2013-02-13 04:52:00,
2013-02-12 23:57:00,24.8,23.6,30.82,SW,226,0.0,0.0,95,0.00,CLR,CLR,0.00,WeatherDisplay:10.37,2013-02-13 04:57:00,